This is the latest recevied weather packets stored in our database for station/object K1RFS. If no packets are shown the sender has not sent any weather packets the latest 10 day(s).
| Time | Temp. | Humidity | Pressure | Rain* | Wind** | Luminosity | Snow |
|---|---|---|---|---|---|---|---|
| 1787488818 | 18.33° C | 70% | 1006.9 hPa | 0 mm | - | 1 W/m² | - |
| 1787488514 | 18.33° C | 69% | 1006.8 hPa | 0 mm | - | 0 W/m² | - |
| 1787488210 | 18.33° C | 68% | 1007 hPa | 0 mm | - | 0 W/m² | - |
| 1787487907 | 18.89° C | 66% | 1006.9 hPa | 0 mm | - | 0 W/m² | - |
| 1787487603 | 18.89° C | 65% | 1006.9 hPa | 0 mm | - | 0 W/m² | - |
| 1787487300 | 19.44° C | 64% | 1006.8 hPa | 0 mm | - | 0 W/m² | - |
| 1787486996 | 20° C | 61% | 1006.9 hPa | 0 mm | - | 0 W/m² | - |
| 1787486696 | 20° C | 62% | 1006.9 hPa | 0 mm | - | 0 W/m² | - |
| 1787486395 | 18.89° C | 63% | 1006.8 hPa | 0 mm | - | 0 W/m² | - |
| 1787486090 | 18.89° C | 65% | 1007 hPa | 0 mm | - | 0 W/m² | - |
| 1787485785 | 18.89° C | 65% | 1007.1 hPa | 0 mm | - | 0 W/m² | - |
| 1787485481 | 18.89° C | 65% | 1007 hPa | 0 mm | - | 0 W/m² | - |
| 1787485176 | 18.89° C | 66% | 1007 hPa | 0 mm | - | 0 W/m² | - |
| 1787484872 | 18.89° C | 68% | 1007.3 hPa | 0 mm | - | 0 W/m² | - |
| 1787484569 | 18.33° C | 70% | 1007.2 hPa | 0 mm | - | 0 W/m² | - |
| 1787484264 | 18.33° C | 70% | 1007.3 hPa | 0 mm | - | 0 W/m² | - |
| 1787483960 | 18.33° C | 70% | 1007.1 hPa | 0 mm | - | 0 W/m² | - |
| 1787483657 | 18.33° C | 70% | 1007.4 hPa | 0 mm | - | 0 W/m² | - |
| 1787483353 | 18.33° C | 70% | 1007.2 hPa | 0 mm | - | 0 W/m² | - |
| 1787483049 | 18.33° C | 70% | 1007.6 hPa | 0 mm | - | 0 W/m² | - |
| 1787482744 | 18.89° C | 72% | 1007.4 hPa | 0 mm | - | 0 W/m² | - |
| 1787482440 | 18.89° C | 71% | 1007.7 hPa | 0 mm | - | 0 W/m² | - |
| 1787482137 | 18.33° C | 71% | 1007.3 hPa | 0 mm | - | 0 W/m² | - |
| 1787481836 | 18.89° C | 71% | 1007.8 hPa | 0 mm | - | 0 W/m² | - |
| 1787481536 | 18.89° C | 70% | 1007.6 hPa | 0 mm | - | 0 W/m² | - |
* Rain latest hour (hover to see other rain measurements)
** Current wind speed in m/s (hover to see current wind gust speed)